Meteo Giornale » Osservazioni meteo Argentina » Bariloche Aerodrome

ore: 18:00 - Osservazioni Meteo Bariloche Aerodrome
Lat. 41° 9' S Lon. 71° 10' W Alt. 845 metri s.l.m.

nuvoloso

5 °C

Nuvoloso

Temp. 24 Ore

2 °C

6 °C

Ovest/Nord-Ovest

40.7 Km/h

Dew point 0 °C

Umidità 70 %

Visibilità  10 Km

Il sole sorge alle ore 08:10

Il sole tramonta alle ore 19:19

Data e Ora Cielo e Fenomeni T °C DP °C Um. % Pres. hPa Vis. km Vento km/h
Oggi h: 18:00 nuvoloso Nuvoloso 5 0 70 1017 10 O/NO 40.7
Oggi h: 17:00 nuvoloso Nuvoloso 6 -1 60 1017 10 O/NO 51.8
Oggi h: 16:00 poco_nuvoloso Poco Nuvoloso 6 -2 56 1016 10 O/NO 51.8
Oggi h: 15:00 poco_nuvoloso Poco Nuvoloso 6 -2 56 1016 10 O/NO 64.8
Oggi h: 14:00 poco_nuvoloso Poco Nuvoloso 6 -2 56 1016 10 O/NO 64.8
Oggi h: 13:00 nuvoloso Nuvoloso 6 -1 60 1016 10 O/NO 53.7
Oggi h: 12:00 nuvoloso Nuvoloso 6 -1 60 1016 10 NO 48.1
Oggi h: 11:00 poco_nuvoloso Poco Nuvoloso 5 -2 60 1016 10 NO 40.7
Oggi h: 10:00 poco_nuvoloso Poco Nuvoloso 4 -2 64 1016 10 NO 35.2
Oggi h: 09:00 poco_nuvoloso Poco Nuvoloso 3 -3 64 1015 10 O/NO 29.6
Oggi h: 08:00 poco_nuvoloso Poco Nuvoloso 2 -1 80 1015 10 O/NO 29.6
Oggi h: 07:00 poco_nuvoloso Poco Nuvoloso 2 -1 80 1015 10 O/NO 25.9
Oggi h: 06:00 poco_nuvoloso Poco Nuvoloso 2 -1 80 1015 10 O/NO 29.6
Oggi h: 05:00 poco_nuvoloso Poco Nuvoloso 2 -1 80 1014 10 O/NO 33.3
Oggi h: 04:00 nuvoloso Nuvoloso 2 0 86 1014 10 O/NO 29.6
Oggi h: 03:00 coperto_pioggia Pioggia 2 0 86 1014 8 O 24
Oggi h: 02:00 coperto_neve Acquaneve 2 0 86 1013 6 O/NO 27.8
Oggi h: 01:00 coperto_neve Acquaneve 2 -1 80 1013 4 O/NO 33.3
Oggi h: 00:00 nuvoloso Nuvoloso 3 0 80 1012 10 NO 27.8
Ieri h: 23:00 nuvoloso Nuvoloso 3 1 86 1012 10 O/NO 31.5
Ieri h: 22:00 nuvoloso Nuvoloso 3 1 86 1011 10 O/NO 24
Ieri h: 21:00 coperto_pioggia Pioggia 3 2 93 1011 10 O 13
Ieri h: 20:00 coperto_pioggia Pioggia 3 2 93 1011 9 O/NO 22.2